CW4588 Weather Reports


Display with metric or nautical units.
time (UTC)temp
F
wind
direction
speed
MPH
gust
MPH
rain 1hr
in
rain 24hr
in
rain mn
in
humidity
%
barometer
mb
20260905204521 48 5 2.0 0.0 0.00 0.00 0.02 94 998.8
20260905204059 48 26 2.0 0.0 0.00 0.00 0.02 94 998.7
20260905203522 48 40 2.0 0.0 0.00 0.00 0.02 94 998.7
20260905203032 48 346 1.0 0.0 0.00 0.00 0.02 94 998.7
20260905202535 48 335 0.0 0.0 0.00 0.00 0.02 94 998.6
20260905202021 48 342 0.0 0.0 0.00 0.00 0.02 94 998.6
20260905201538 47 328 0.0 0.0 0.00 0.00 0.02 94 998.6
20260905201023 47 335 0.0 0.0 0.00 0.00 0.02 94 998.4
20260905200525 47 311 0.0 0.0 0.00 0.00 0.02 94 998.4
20260905200046 47 336 0.0 0.0 0.00 0.00 0.02 93 998.4
20260905195529 47 336 0.0 0.0 0.00 0.00 0.02 93 998.3
20260905195037 47 325 0.0 0.0 0.00 0.00 0.02 93 998.3
20260905194557 47 314 0.0 0.0 0.00 0.00 0.02 92 998.3
20260905194039 48 353 0.0 0.0 0.00 0.00 0.02 92 998.2
20260905193524 48 334 1.0 0.0 0.00 0.00 0.02 92 998.2
20260905193104 48 305 1.0 0.0 0.00 0.00 0.02 92 998.2
20260905192523 48 338 0.0 0.0 0.00 0.00 0.02 92 998.1
20260905192030 48 318 1.0 0.0 0.00 0.00 0.02 92 998.1
20260905191536 48 342 1.0 0.0 0.00 0.00 0.02 92 998.1
20260905191031 48 267 1.0 0.0 0.00 0.00 0.02 91 998.1
20260905190536 48 336 1.0 0.0 0.00 0.00 0.02 91 998.1
20260905190053 49 334 1.0 0.0 0.00 0.00 0.02 91 998.1
20260905185558 49 341 1.0 0.0 0.00 0.00 0.02 91 997.8
20260905185024 49 301 0.0 0.0 0.00 0.00 0.02 91 997.8
20260905184523 49 342 0.0 0.0 0.00 0.00 0.02 91 997.8
20260905184036 49 349 0.0 0.0 0.00 0.00 0.02 91 997.8
20260905183519 49 342 1.0 0.0 0.00 0.00 0.02 91 997.8
20260905183027 49 356 2.0 0.0 0.00 0.00 0.02 91 997.8
20260905182543 49 342 2.0 0.0 0.00 0.00 0.02 90 997.7
20260905182031 49 335 2.0 0.0 0.00 0.00 0.02 90 997.7
20260905181528 49 338 1.0 0.0 0.00 0.00 0.02 90 997.7
20260905181034 49 9 1.0 0.0 0.00 0.00 0.02 89 997.7
20260905180520 49 360 2.0 0.0 0.00 0.00 0.02 89 997.7
20260905180032 49 349 2.0 0.0 0.00 0.00 0.02 89 997.6
20260905175559 49 350 2.0 0.0 0.00 0.00 0.02 89 997.5
20260905175022 49 310 2.0 0.0 0.00 0.00 0.02 89 997.5
20260905174539 49 324 1.0 0.0 0.00 0.00 0.02 89 997.5
20260905174040 49 359 2.0 0.0 0.00 0.00 0.02 89 997.2
20260905173523 49 308 2.0 0.0 0.00 0.00 0.02 88 997.2
20260905173037 49 341 2.0 0.0 0.00 0.00 0.02 88 997.2
20260905172520 49 342 2.0 0.0 0.00 0.00 0.02 88 997.1
20260905172026 50 355 2.0 0.0 0.00 0.00 0.02 88 997.2
20260905171545 50 355 3.0 0.0 0.00 0.00 0.02 88 997.2
20260905171027 50 332 2.0 0.0 0.00 0.00 0.02 88 996.9
20260905170535 50 349 2.0 0.0 0.00 0.00 0.02 88 996.9
20260905170026 50 339 1.0 0.0 0.00 0.00 0.02 87 996.9
20260905165533 50 342 2.0 0.0 0.00 0.00 0.02 87 996.7
20260905165048 50 342 1.0 0.0 0.00 0.00 0.02 87 996.7
20260905164534 50 44 3.0 0.0 0.00 0.00 0.02 86 996.7
20260905164036 50 342 6.0 0.0 0.00 0.00 0.02 86 996.6
20260905163522 51 358 5.0 0.0 0.00 0.00 0.02 86 996.6
20260905163039 51 19 3.0 0.0 0.00 0.00 0.02 87 996.6
20260905162521 51 355 4.0 0.0 0.00 0.00 0.02 87 996.5
20260905162056 51 7 6.0 0.0 0.00 0.00 0.02 87 996.5
20260905161537 51 342 5.0 0.0 0.00 0.00 0.02 87 996.5
20260905161023 51 353 3.0 0.0 0.00 0.00 0.02 88 996.3
20260905160527 51 6 3.0 0.0 0.00 0.00 0.02 88 996.3
20260905160026 51 353 3.0 0.0 0.00 0.00 0.02 88 996.2
20260905155530 52 329 4.0 0.0 0.00 0.00 0.02 87 996.1
20260905155037 52 342 4.0 0.0 0.00 0.00 0.02 86 996.1
20260905154552 52 342 5.0 0.0 0.00 0.00 0.02 85 996.1
20260905154033 53 342 6.0 0.0 0.00 0.00 0.02 84 995.9
20260905153523 53 342 5.0 0.0 0.00 0.00 0.02 83 995.9
20260905153027 53 334 6.0 0.0 0.00 0.00 0.02 80 995.9
20260905152539 53 13 6.0 0.0 0.00 0.00 0.02 79 995.7
20260905152025 53 23 5.0 0.0 0.00 0.00 0.02 80 995.7
20260905151558 53 302 4.0 0.0 0.00 0.00 0.02 80 995.7
20260905151020 53 342 5.0 0.0 0.00 0.00 0.02 80 995.6
20260905150520 53 33 6.0 0.0 0.00 0.00 0.02 81 995.6
20260905150028 53 341 5.0 0.0 0.00 0.00 0.02 81 995.6
20260905145524 54 345 5.0 0.0 0.00 0.00 0.02 81 995.4
20260905145030 54 34 6.0 0.0 0.00 0.00 0.02 81 995.4
20260905144548 54 342 6.0 0.0 0.00 0.00 0.02 82 995.4
20260905144031 54 360 6.0 0.0 0.00 0.00 0.02 82 995.2
20260905143553 54 339 5.0 0.0 0.00 0.00 0.02 82 995.2
20260905143036 54 334 5.0 0.0 0.00 0.00 0.02 82 995.2
20260905142538 54 339 5.0 0.0 0.00 0.00 0.02 82 995.1
20260905142019 54 98 5.0 0.0 0.00 0.00 0.02 82 995.1
20260905141529 54 342 5.0 0.0 0.00 0.00 0.02 82 995.1
20260905141055 54 19 6.0 0.0 0.00 0.00 0.02 82 995.0
20260905140527 54 13 6.0 0.0 0.00 0.00 0.02 82 995.0
20260905140058 54 16 5.0 0.0 0.00 0.00 0.02 81 995.0
20260905135548 54 294 6.0 0.0 0.00 0.00 0.02 80 994.7
20260905135027 54 339 6.0 0.0 0.00 0.00 0.02 80 994.7
20260905134543 55 343 6.0 0.0 0.00 0.00 0.02 79 994.7
20260905134021 55 9 6.0 0.0 0.00 0.00 0.02 77 994.5
20260905133525 55 22 6.0 0.0 0.00 0.00 0.02 80 994.5
20260905133043 55 13 6.0 0.0 0.00 0.00 0.02 79 994.5
20260905132528 55 24 6.0 0.0 0.00 0.00 0.02 79 994.5
20260905132028 55 356 6.0 0.0 0.00 0.00 0.02 80 994.5
20260905131547 55 342 5.0 0.0 0.00 0.00 0.02 81 994.5
20260905131031 55 307 5.0 0.0 0.00 0.00 0.02 82 994.3
20260905130535 55 328 4.0 0.0 0.00 0.00 0.02 82 994.3
20260905130048 55 41 4.0 0.0 0.00 0.00 0.02 83 994.3
20260905125529 55 342 6.0 0.0 0.00 0.00 0.02 82 994.0
20260905125036 56 22 6.0 0.0 0.00 0.00 0.02 80 994.1
20260905124550 57 16 4.0 0.0 0.00 0.00 0.02 79 994.1
20260905124054 57 22 3.0 0.0 0.00 0.00 0.02 78 993.9
20260905123532 56 356 4.0 0.0 0.00 0.00 0.02 81 993.9
20260905123038 56 342 5.0 0.0 0.00 0.00 0.02 80 993.9
20260905122520 57 342 6.0 0.0 0.00 0.00 0.02 79 993.6
20260905122036 57 335 6.0 0.0 0.00 0.00 0.02 79 993.6
20260905121521 58 47 6.0 0.0 0.00 0.00 0.02 79 993.6
20260905121027 58 13 4.0 0.0 0.00 0.00 0.02 80 993.5
20260905120527 57 37 3.0 0.0 0.00 0.00 0.02 81 993.5
20260905120023 57 356 4.0 0.0 0.00 0.00 0.02 80 993.5
20260905115523 58 339 3.0 0.0 0.00 0.00 0.02 80 993.4
20260905115043 58 322 4.0 0.0 0.00 0.00 0.02 80 993.4
20260905114525 57 20 3.0 0.0 0.00 0.00 0.02 82 993.4
20260905114027 57 334 3.0 0.0 0.00 0.00 0.02 81 993.3
20260905113531 57 342 4.0 0.0 0.00 0.00 0.02 80 993.3
20260905113049 57 359 5.0 0.0 0.00 0.00 0.02 80 993.3
20260905112529 58 3 4.0 0.0 0.00 0.00 0.02 81 993.0
20260905112056 58 336 3.0 0.0 0.00 0.00 0.02 82 993.0
20260905111529 58 16 3.0 0.0 0.00 0.00 0.02 85 993.0
20260905111055 58 23 4.0 0.0 0.00 0.00 0.02 82 992.9
20260905110543 58 19 4.0 0.0 0.00 0.00 0.02 82 992.9
20260905110024 59 27 4.0 0.0 0.00 0.00 0.02 81 992.9
20260905105525 58 36 4.0 0.0 0.00 0.00 0.01 80 992.8
20260905105044 58 14 4.0 0.0 0.00 0.00 0.01 81 992.8
20260905104559 57 26 3.0 0.0 0.00 0.00 0.01 82 992.8
20260905104022 57 26 2.0 0.0 0.00 0.00 0.01 83 992.7
20260905103527 57 29 6.0 0.0 0.00 0.00 0.01 83 992.7
20260905103032 57 3 7.0 0.0 0.00 0.00 0.01 82 992.7
20260905102543 58 24 6.0 0.0 0.00 0.00 0.01 83 992.5
20260905102024 58 13 5.0 0.0 0.00 0.00 0.01 82 992.5
20260905101537 58 352 6.0 0.0 0.00 0.00 0.01 80 992.5
20260905101036 58 24 7.0 0.0 0.00 0.00 0.01 83 992.4
20260905100551 58 27 8.0 0.0 0.00 0.00 0.01 83 992.4
20260905100029 57 10 8.0 0.0 0.00 0.00 0.01 83 992.4
20260905095540 57 10 8.0 0.0 0.00 0.00 0.01 87 992.2
20260905095039 56 23 8.0 0.0 0.00 0.00 0.01 87 992.1
20260905094544 56 332 7.0 0.0 0.00 0.00 0.01 88 992.1
20260905094035 56 17 5.0 0.0 0.00 0.00 0.01 90 992.0
20260905093536 56 341 3.0 0.0 0.00 0.00 0.01 92 992.0
20260905093053 55 355 4.0 0.0 0.00 0.00 0.01 92 992.0
20260905092536 55 29 3.0 0.0 0.00 0.00 0.01 92 991.9
20260905092025 55 342 2.0 0.0 0.00 0.00 0.01 93 991.9
20260905091554 55 332 3.0 0.0 0.00 0.00 0.01 93 991.9
20260905091027 55 342 5.0 0.0 0.00 0.00 0.01 92 991.8
20260905090535 55 353 5.0 0.0 0.00 0.00 0.01 93 991.8
20260905090053 55 24 5.0 0.0 0.00 0.00 0.01 95 991.8
20260905085534 55 342 4.0 0.0 0.00 0.00 0.01 95 991.7
20260905085021 55 328 3.0 0.0 0.00 0.00 0.01 96 991.7
20260905084538 55 27 3.0 0.0 0.00 0.00 0.01 97 991.7
20260905084025 54 342 3.0 0.0 0.00 0.00 0.01 97 991.6
20260905083555 54 343 3.0 0.0 0.00 0.00 0.01 97 991.6
20260905083031 54 37 4.0 0.0 0.00 0.00 0.01 97 991.6
20260905082536 55 7 3.0 0.0 0.00 0.00 0.00 97 991.4
20260905082040 55 350 1.0 0.0 0.00 0.00 0.00 97 991.4
20260905081601 55 338 2.0 0.0 0.00 0.00 0.00 98 991.4
20260905081028 55 331 2.0 0.0 0.00 0.00 0.00 99 991.3
20260905080536 55 30 1.0 0.0 0.00 0.00 0.00 100 991.3
20260905080038 55 31 1.0 0.0 0.00 0.00 0.00 100 991.3
20260905075543 55 349 1.0 0.0 0.00 0.00 0.00 100 991.3
20260905075022 54 359 1.0 0.0 0.00 0.00 0.00 100 991.3
20260905074530 54 342 0.0 0.0 0.00 0.00 0.00 100 991.3
20260905074030 54 359 0.0 0.0 0.00 0.00 0.00 100 991.3
20260905073540 53 336 0.0 0.0 0.00 0.00 0.00 100 991.3
20260905073021 53 321 0.0 0.0 0.00 0.00 0.00 100 991.3
20260905072522 53 329 1.0 0.0 0.00 0.00 0.00 100 991.2
20260905072035 53 341 1.0 0.0 0.00 0.00 0.00 100 991.2
20260905071540 53 345 0.0 0.0 0.00 0.00 0.00 100 991.2
20260905071022 53 293 0.0 0.0 0.00 0.00 0.00 100 991.1
20260905070537 53 341 0.0 0.0 0.00 0.00 0.00 100 991.1
20260905070029 53 342 0.0 0.0 0.00 0.00 0.00 100 991.1
20260905065533 53 247 0.0 0.0 0.00 0.00 0.00 100 991.0
20260905065047 53 324 0.0 0.0 0.00 0.00 0.00 100 991.0
20260905064532 52 341 0.0 0.0 0.00 0.00 0.00 100 991.0
20260905064034 52 325 0.0 0.0 0.00 0.00 0.00 100 990.9
20260905063522 51 300 0.0 0.0 0.00 0.00 0.00 100 990.9
20260905063030 51 329 0.0 0.0 0.00 0.00 0.00 100 990.9
20260905062544 51 317 0.0 0.0 0.00 0.00 0.00 100 990.8
20260905062029 50 318 0.0 0.0 0.00 0.00 0.00 100 990.8
20260905061548 50 339 0.0 0.0 0.00 0.00 0.00 100 990.8
20260905061056 50 342 0.0 0.0 0.00 0.00 0.00 100 990.8
20260905060522 50 326 0.0 0.0 0.00 0.00 0.00 100 990.8
20260905060038 50 280 0.0 0.0 0.00 0.00 0.00 100 990.8
20260905055539 50 342 0.0 0.0 0.00 0.00 0.00 100 990.8
20260905055042 49 315 0.0 0.0 0.00 0.00 0.00 100 990.8
20260905054558 49 290 0.0 0.0 0.00 0.00 0.00 100 990.8
20260905054025 49 335 0.0 0.0 0.00 0.00 0.00 100 990.8
20260905053602 49 335 0.0 0.0 0.00 0.00 0.00 100 990.8
20260905053051 49 297 0.0 0.0 0.00 0.00 0.00 100 990.8
20260905052607 49 338 0.0 0.0 0.00 0.00 0.00 100 990.9
20260905052050 49 339 0.0 0.0 0.00 0.00 0.00 100 990.9
20260905051544 49 319 0.0 0.0 0.00 0.00 0.00 100 990.9
20260905051025 49 332 0.0 0.0 0.00 0.00 0.00 100 990.8
20260905050531 48 339 0.0 0.0 0.00 0.00 0.00 100 990.8
20260905050043 48 334 0.0 0.0 0.00 0.00 0.00 100 990.8
20260905045525 48 312 0.0 0.0 0.00 0.00 0.00 100 990.8
20260905045034 48 314 0.0 0.0 0.00 0.00 0.00 100 990.8
20260905044521 47 314 0.0 0.0 0.00 0.00 0.00 100 990.8
20260905044029 47 314 0.0 0.0 0.00 0.00 0.00 100 990.9
20260905043526 47 318 0.0 0.0 0.00 0.00 0.00 100 990.9
20260905043029 47 319 0.0 0.0 0.00 0.00 0.00 100 990.9
20260905042535 47 319 0.0 0.0 0.00 0.00 0.00 100 990.9
20260905042024 46 319 0.0 0.0 0.00 0.00 0.00 100 990.9
20260905041538 46 191 0.0 0.0 0.00 0.00 0.00 100 990.9
20260905041024 46 191 0.0 0.0 0.00 0.00 0.00 100 990.8
20260905040532 46 191 0.0 0.0 0.00 0.00 0.00 100 990.8
20260905040043 46 191 0.0 0.0 0.00 0.00 0.00 100 990.8
20260905035525 46 191 0.0 0.0 0.00 0.00 0.00 100 990.8
20260905035029 45 191 0.0 0.0 0.00 0.00 0.00 100 990.8
20260905034544 45 191 0.0 0.0 0.00 0.00 0.00 100 990.8
20260905034029 45 191 0.0 0.0 0.00 0.00 0.00 100 990.7
20260905033534 45 191 0.0 0.0 0.00 0.00 0.00 100 990.7
20260905033029 45 191 0.0 0.0 0.00 0.00 0.00 100 990.7
20260905032526 45 191 0.0 0.0 0.00 0.00 0.00 100 990.8
20260905032038 45 191 0.0 0.0 0.00 0.00 0.00 100 990.8
20260905031522 44 191 0.0 0.0 0.00 0.00 0.00 100 990.8
20260905031101 44 191 0.0 0.0 0.00 0.00 0.00 100 990.7
20260905030530 44 191 0.0 0.0 0.00 0.00 0.00 100 990.7
20260905030051 44 191 0.0 0.0 0.00 0.00 0.00 100 990.8
20260905025535 44 191 0.0 0.0 0.00 0.00 0.00 100 990.8
20260905025020 44 191 0.0 0.0 0.00 0.00 0.00 100 990.8
20260905024526 44 191 0.0 0.0 0.00 0.00 0.00 100 990.8
20260905024055 43 191 0.0 0.0 0.00 0.00 0.00 100 990.8
20260905023541 43 191 0.0 0.0 0.00 0.00 0.00 100 990.8
20260905023037 43 191 0.0 0.0 0.00 0.00 0.00 100 990.8
20260905022519 43 191 0.0 0.0 0.00 0.00 0.00 100 990.7
20260905022027 43 191 0.0 0.0 0.00 0.00 0.00 100 990.7
20260905021534 43 191 0.0 0.0 0.00 0.00 0.00 100 990.7
20260905021031 43 191 0.0 0.0 0.00 0.00 0.00 100 990.7
20260905020529 43 191 0.0 0.0 0.00 0.00 0.00 100 990.7
20260905020034 43 191 0.0 0.0 0.00 0.00 0.00 100 990.7
20260905015529 43 191 0.0 0.0 0.00 0.00 0.00 100 990.6
20260905015035 43 191 0.0 0.0 0.00 0.00 0.00 100 990.6
20260905014521 43 191 0.0 0.0 0.00 0.00 0.00 100 990.6
20260905014038 43 191 0.0 0.0 0.00 0.00 0.00 100 990.8
20260905013524 43 191 0.0 0.0 0.00 0.00 0.00 100 990.8
20260905013027 42 191 0.0 0.0 0.00 0.00 0.00 99 990.8
20260905012607 42 191 0.0 0.0 0.00 0.00 0.00 99 990.9
20260905012052 42 191 0.0 0.0 0.00 0.00 0.00 99 990.9
20260905011520 42 191 0.0 0.0 0.00 0.00 0.00 99 990.9
20260905011034 42 191 0.0 0.0 0.00 0.00 0.00 99 990.9
20260905010523 42 191 0.0 0.0 0.00 0.00 0.00 99 990.9
20260905010033 42 191 0.0 0.0 0.00 0.00 0.00 99 990.9
20260905005553 42 191 0.0 0.0 0.00 0.00 0.00 99 990.9
20260905005020 42 191 0.0 0.0 0.00 0.00 0.00 98 990.9
20260905004527 42 191 0.0 0.0 0.00 0.00 0.00 98 990.9
20260905004036 42 191 0.0 0.0 0.00 0.00 0.00 98 990.9
20260905003541 42 191 0.0 0.0 0.00 0.00 0.00 98 990.9
20260905003028 42 191 0.0 0.0 0.00 0.00 0.00 98 990.9
20260905002534 42 191 0.0 0.0 0.00 0.00 0.00 97 990.9
20260905002020 41 191 0.0 0.0 0.00 0.00 0.00 97 990.9
20260905001533 42 191 0.0 0.0 0.00 0.00 0.00 97 990.9
20260905001017 41 191 0.0 0.0 0.00 0.00 0.00 97 991.1
20260905000526 42 191 0.0 0.0 0.00 0.00 0.00 97 991.1
20260905000052 42 191 0.0 0.0 0.00 0.00 0.00 97 991.1
20260904235536 42 191 0.0 0.0 0.00 0.00 0.00 97 991.3
20260904235022 42 191 0.0 0.0 0.00 0.00 0.00 97 991.3
20260904234532 42 191 0.0 0.0 0.00 0.00 0.00 97 991.3
20260904234045 42 191 0.0 0.0 0.00 0.00 0.00 97 991.4
20260904233558 42 191 0.0 0.0 0.00 0.00 0.00 97 991.4
20260904233026 42 191 0.0 0.0 0.00 0.00 0.00 97 991.4
20260904232539 42 191 0.0 0.0 0.00 0.00 0.00 97 991.4
20260904232024 43 191 0.0 0.0 0.00 0.00 0.00 97 991.4
20260904231530 43 191 0.0 0.0 0.00 0.00 0.00 97 991.4
20260904231031 43 191 0.0 0.0 0.00 0.00 0.00 97 991.4
20260904230546 43 191 0.0 0.0 0.00 0.00 0.00 97 991.4
20260904230033 43 191 0.0 0.0 0.00 0.00 0.00 97 991.4
20260904225539 43 191 0.0 0.0 0.00 0.00 0.00 97 991.4
20260904225024 44 191 0.0 0.0 0.00 0.00 0.00 97 991.4
20260904224538 44 191 0.0 0.0 0.00 0.00 0.00 97 991.4
20260904224043 44 191 0.0 0.0 0.00 0.00 0.00 97 991.5
20260904223528 44 191 0.0 0.0 0.00 0.00 0.00 97 991.5
20260904223047 44 191 0.0 0.0 0.00 0.00 0.00 97 991.5
20260904222528 44 191 0.0 0.0 0.00 0.00 0.00 97 991.6
20260904222033 44 191 0.0 0.0 0.00 0.00 0.00 97 991.6
20260904221522 44 191 0.0 0.0 0.00 0.00 0.00 96 991.6
20260904221041 45 191 0.0 0.0 0.00 0.00 0.00 96 991.7
20260904220525 45 191 0.0 0.0 0.00 0.00 0.00 96 991.7
20260904220048 45 191 0.0 0.0 0.00 0.00 0.00 96 991.7
20260904215554 45 191 0.0 0.0 0.00 0.00 0.00 96 991.8
20260904215037 45 191 0.0 0.0 0.00 0.00 0.00 96 991.8
20260904214551 45 191 0.0 0.0 0.00 0.00 0.00 96 991.8
20260904214035 45 191 0.0 0.0 0.00 0.00 0.00 96 991.9
20260904213520 45 191 0.0 0.0 0.00 0.00 0.00 96 991.9
20260904213035 44 191 0.0 0.0 0.00 0.00 0.00 96 991.9
20260904212553 44 191 0.0 0.0 0.00 0.00 0.00 96 991.9
20260904212035 44 191 0.0 0.0 0.00 0.00 0.00 95 991.9
20260904211522 44 191 0.0 0.0 0.00 0.00 0.00 95 991.9
20260904211036 44 191 0.0 0.0 0.00 0.00 0.00 95 992.0
20260904210521 44 191 0.0 0.0 0.00 0.00 0.00 95 992.0
20260904210037 44 191 0.0 0.0 0.00 0.00 0.05 95 992.0
20260904205537 44 191 0.0 0.0 0.00 0.00 0.05 94 992.0
20260904205022 44 191 0.0 0.0 0.00 0.00 0.05 94 992.0